Temp_Advection
nan nan nan nan nan nan nan nan nan nan nan nan nan nan nan nan nan nan nan nan nan nan nan nan nan nan nan nan nan nan nan nan nan nan nan nan nan nan nan nan nan nan nan nan nan nan nan nan nan nan nan nan nan nan nan nan nan nan nan nan nan nan nan nan nan nan nan nan nan
nan 1 1 0 0 0 0 0 0 0 0 0 0 0 -0 -0 -0 -0 -0 0 0 0 0 0 0 0 -0 -0 -0 -0 -0 0 0 0 0 1 0 0 1 1 1 1 1 1 1 1 1 1 0 0 0 0 1 1 1 1 0 0 0 -0 -1 -1 -1 -1 -1 -2 -2 -0 nan
nan 1 0 0 0 0 -0 -0 -0 -0 -0 -0 -0 -0 -0 -0 -0 -0 0 -0 0 0 0 0 0 0 0 -0 -0 -0 -0 0 0 0 0 0 0 0 1 1 1 1 1 1 1 0 1 1 0 0 0 0 0 1 0 -0 -0 -1 -1 -1 -2 -2 -2 -2 -2 -2 -0 1 nan
nan 0 -0 -0 -0 -0 -0 0 0 0 -0 -0 -0 -0 -0 -0 -0 0 0 0 0 0 0 -0 0 0 0 0 -0 -0 0 0 0 0 0 0 0 0 0 0 1 1 1 1 0 0 0 1 1 1 0 0 0 0 -0 -0 -0 -0 -0 -1 -1 -1 -1 -1 -0 1 2 2 nan
nan 1 0 0 0 0 0 0 0 0 0 -0 -0 -0 -0 0 0 0 -0 -0 0 0 0 -0 -0 0 0 0 0 -0 -0 0 0 0 0 0 0 0 0 0 0 0 1 1 1 1 1 1 2 2 1 -0 -0 -0 -0 0 0 0 0 0 0 -0 -0 0 1 2 2 1 nan
nan 1 1 1 1 1 1 0 0 0 0 0 0 0 0 0 0 0 0 0 0 0 0 0 0 0 -0 0 0 -0 -0 -0 -0 -0 -0 -0 0 0 0 0 0 0 0 0 1 1 1 2 2 1 0 0 0 0 0 1 1 1 1 1 0 0 0 1 1 1 1 0 nan
nan 1 1 1 1 1 1 1 1 1 0 0 0 0 0 0 0 0 0 0 0 0 0 0 0 0 0 0 -0 -0 -0 -0 0 -0 -0 -0 0 0 0 0 0 0 0 0 0 1 1 1 1 0 0 0 1 1 1 0 0 0 1 1 0 0 0 0 0 0 0 -0 nan
nan 1 1 1 1 1 1 1 1 1 1 0 0 0 0 0 0 0 0 0 0 0 0 0 0 0 0 0 0 0 0 -0 -0 -0 0 0 0 0 0 0 0 -0 -0 0 1 0 0 0 0 0 0 1 1 1 0 -0 -1 -0 1 1 0 -0 -0 -0 0 0 -0 -0 nan
nan 1 0 1 1 1 1 1 1 1 0 0 0 1 1 1 0 0 0 0 0 0 0 0 0 0 0 0 0 0 0 0 0 0 0 0 0 0 0 0 0 -0 -0 0 1 0 0 0 0 1 1 1 0 0 -0 -1 -1 0 1 1 -0 -0 -0 -0 -0 -0 -0 -0 nan
nan 1 0 0 0 1 1 1 1 0 -0 -0 -0 1 1 1 1 0 0 0 0 0 0 0 0 0 0 0 0 0 0 0 0 0 0 0 0 0 0 -0 -0 0 0 1 1 1 1 1 1 1 0 0 0 -0 -0 -0 0 1 1 0 0 -0 -0 -0 -0 -0 -0 -0 nan
nan 0 0 -0 0 0 1 0 0 -0 -1 -1 -0 0 1 1 0 0 0 0 0 0 0 0 0 0 0 0 0 0 0 0 0 0 0 0 0 0 0 0 0 0 0 0 0 1 1 1 1 0 0 -0 -0 -0 0 0 1 1 1 0 0 -0 -0 -1 -1 -1 -0 -0 nan
nan 0 0 -0 0 0 -0 -0 -0 -0 -1 -1 -0 -0 0 0 0 1 1 0 -0 -0 -0 0 0 0 0 0 0 0 -0 -0 -0 -0 -0 -0 -0 0 0 0 0 0 0 0 0 0 0 0 0 0 -0 -0 -0 -0 0 0 0 0 0 0 -0 -0 -1 -1 -1 -0 0 0 nan
nan 0 0 0 0 -0 -1 -1 -0 -0 -1 -1 -1 -0 -0 0 0 1 1 0 -0 -0 -0 -0 0 0 -0 0 0 0 0 0 -0 -0 -0 -0 -0 -0 -0 0 0 0 0 0 0 0 0 0 0 0 -0 -1 -1 -0 0 1 1 0 0 -0 -0 -0 -0 -0 0 1 1 1 nan
nan 0 -0 -0 -1 -1 -1 -0 -0 -1 -1 -1 -1 -0 -0 0 0 0 0 -0 -0 -0 -0 0 -0 -0 -0 -0 0 0 0 0 0 0 0 0 0 0 0 0 0 0 0 0 0 0 0 -0 -0 -0 -0 -1 -0 0 1 1 1 0 -0 -0 -0 -0 0 1 1 1 1 1 nan
nan -1 -1 -1 -1 -1 -0 -0 -0 -1 -1 -1 -1 0 0 0 -0 -0 -0 -1 -1 -0 -0 -0 -0 -0 -0 -0 -0 0 0 0 0 0 0 0 0 0 0 0 0 0 0 0 0 0 0 0 0 0 0 0 0 1 1 0 0 0 -0 -0 0 1 1 1 1 1 0 0 nan
nan -2 -2 -1 -1 -0 -0 -0 -1 -1 -1 -0 0 1 0 -0 -0 -0 -0 -1 -1 -0 -0 -0 -0 -0 -0 -0 -0 -0 -0 0 0 0 0 0 0 0 0 0 0 0 0 0 0 0 0 0 0 0 0 0 0 0 0 0 0 0 -0 0 0 1 1 1 0 0 0 0 nan
nan -1 0 1 1 1 0 -0 -0 -0 -0 0 1 0 -0 -0 -0 -0 -0 -1 -0 -0 -0 -0 -0 -0 -0 -0 -0 -0 -0 -0 -0 -0 -0 -0 -0 -0 -0 -0 -0 0 0 0 0 0 0 0 0 0 0 0 0 0 0 0 0 0 0 0 0 0 0 0 0 0 0 1 nan
nan 2 3 3 2 1 1 0 0 0 1 1 1 0 0 0 0 0 0 -0 -0 -0 -0 0 0 0 0 0 0 0 0 -0 -0 -0 -0 -0 -0 -0 -0 -0 -0 -0 -0 -0 -0 -0 -0 0 0 0 0 0 0 0 0 0 0 0 0 0 0 0 0 0 0 0 0 0 nan
nan 2 3 2 1 1 1 1 1 1 1 1 1 1 1 1 1 1 1 0 0 0 0 0 0 0 0 0 0 0 0 0 -0 -0 -0 -0 -0 -0 -0 -0 -0 -0 -0 -0 -0 -0 -0 -0 -0 -0 -0 0 0 0 0 0 0 0 0 0 0 0 0 0 0 0 0 0 nan
nan 1 1 1 1 0 1 1 1 1 1 1 1 1 1 1 1 1 0 0 0 1 1 1 1 0 0 0 -0 -0 -0 -0 -0 -0 -0 0 0 0 -0 -0 -0 -0 -0 -0 -0 -0 -0 -0 -0 -0 -0 -0 -0 -0 -0 0 0 0 0 0 0 0 0 0 0 -0 -0 -0 nan
nan -0 -0 -0 -0 -0 -0 0 0 0 0 0 0 0 0 0 0 -0 -0 -0 0 1 1 1 0 0 0 -0 -0 -0 -0 -0 -0 -0 -0 -0 -0 -0 -0 -0 -0 -0 -0 -0 -0 0 -0 -0 -0 -0 -0 -0 -0 -1 -1 -0 -0 -0 -0 0 0 0 0 0 0 0 0 0 nan
nan -1 -1 -1 -0 -0 -0 -0 0 0 0 -0 -0 -0 -0 -0 -0 -1 -0 -0 0 0 -0 -0 -0 -0 -0 -0 -0 -0 -0 -0 -0 -0 -0 -0 -0 -0 -0 -0 -0 -0 -0 -0 -0 0 0 0 0 0 0 0 -0 -0 -0 -1 -1 -1 -1 -0 -0 -0 -0 -0 0 0 0 0 nan
nan -1 -1 -1 -0 -0 -0 0 0 0 0 0 0 0 0 -0 -0 -0 -0 0 0 -0 -0 -1 -1 -1 -1 -1 -0 -0 -0 -0 -0 -0 -0 -0 -0 -0 -0 -0 -0 -0 -0 -0 -0 -0 -0 0 0 0 0 0 0 0 -0 -0 -0 -0 -0 -0 -0 -0 -0 -0 -0 -0 -0 -0 nan
nan -1 -1 -1 -1 -0 -0 0 0 0 -0 -0 -0 -0 0 0 0 0 0 0 -0 -0 -0 -0 -0 -0 -0 -0 -0 -0 -0 -0 -0 -0 -0 -0 -0 -0 -0 -0 -0 -0 -0 -0 -0 -0 -1 -0 -0 -0 0 0 0 0 0 -0 -0 -0 -0 -0 -0 0 0 0 0 -0 -0 -0 nan
nan -1 -1 -1 -1 -0 -0 -0 -0 -1 -1 -1 -1 -0 -0 -1 -0 -0 -0 -0 -0 -0 -0 -0 -0 -0 -0 -0 -0 -0 -0 -0 -0 -0 -0 -0 -0 -0 -0 -0 -0 -0 -0 -0 -0 -0 -0 -1 -1 -1 -1 -0 -0 0 0 0 -0 -0 -0 -0 -0 -0 -0 0 0 1 0 0 nan
nan -1 -1 -1 -0 -0 -0 -1 -1 -1 -1 -1 -1 -1 -1 -2 -1 -1 -1 -1 -1 -1 -0 -0 -0 -0 -0 -0 -0 -0 -0 -0 -1 -1 -1 -1 -0 -0 -0 -0 -0 -0 -0 -0 -0 -0 -0 -0 -0 -1 -1 -1 -1 -0 -0 -0 -0 -0 -0 -0 -0 -1 -1 -0 -0 0 1 1 nan
nan -1 -1 -0 -0 -1 -1 -1 -1 -1 -2 -2 -2 -2 -2 -2 -2 -1 -2 -2 -1 -1 -1 -1 -1 -1 -1 -1 -1 -1 -1 -1 -1 -1 -1 -1 -1 -1 -1 -1 -1 -1 -1 -1 -0 -0 -0 -0 -0 -0 -1 -1 -1 -1 -1 -1 -0 -0 -0 0 -0 -0 -1 -1 -1 -0 0 0 nan
nan -1 -1 -1 -1 -1 -1 -1 -2 -2 -2 -2 -2 -2 -2 -2 -2 -2 -2 -2 -2 -2 -2 -2 -2 -2 -2 -2 -2 -1 -1 -1 -1 -1 -1 -1 -1 -1 -1 -1 -1 -1 -1 -1 -1 -1 -1 -1 -1 -1 -1 -1 -1 -1 -1 -1 -1 -1 -0 -0 -0 0 0 -0 -1 -1 -1 -0 nan
nan -1 -0 -1 -1 -1 -1 -1 -2 -2 -2 -2 -2 -1 -1 -1 -2 -2 -2 -2 -2 -3 -3 -3 -3 -3 -2 -2 -2 -2 -2 -2 -2 -2 -1 -1 -1 -1 -1 -1 -1 -1 -1 -1 -1 -1 -1 -1 -1 -1 -1 -1 -1 -1 -1 -1 -1 -1 -1 -1 -1 -1 -0 -0 -0 -0 -0 -0 nan
nan -1 -1 -1 -1 -1 -1 -1 -1 -1 -1 -1 -0 -0 -0 -1 -1 -1 -2 -2 -2 -3 -3 -3 -2 -2 -2 -3 -2 -2 -2 -2 -2 -2 -2 -2 -2 -1 -1 -1 -1 -1 -1 -1 -1 -1 -1 -1 -1 -1 -1 -1 -1 -1 -1 -1 -1 -1 -1 -1 -1 -1 -1 -1 -1 -1 -1 -0 nan
nan -1 -1 -1 -1 -1 -1 -1 -1 -1 -0 -0 -0 -0 -0 -1 -1 -1 -1 -1 -1 -1 -1 -1 -1 -1 -1 -1 -2 -2 -2 -2 -2 -2 -2 -2 -2 -2 -2 -2 -2 -2 -2 -2 -2 -2 -2 -2 -2 -2 -1 -1 -1 -1 -1 -1 -1 -1 -1 -1 -1 -1 -1 -1 -1 -1 -1 -1 nan
nan -1 -1 -1 -1 -1 -1 -1 -1 -1 -1 -0 -0 -0 -1 -1 -1 -1 -0 -0 -0 -0 -0 -1 -1 -1 -1 -1 -1 -1 -1 -1 -1 -2 -2 -2 -2 -2 -2 -2 -2 -2 -2 -2 -2 -2 -2 -2 -2 -2 -2 -2 -2 -1 -1 -1 -1 -1 -1 -1 -1 -1 -1 -1 -1 -1 -1 -1 nan
nan -1 -1 -1 -2 -2 -1 -1 -1 -1 -1 -1 -1 -1 -1 -1 -1 -0 -0 -0 -1 -1 -1 -1 -1 -1 -1 -1 -1 -1 -1 -1 -1 -1 -1 -1 -1 -1 -1 -1 -1 -1 -2 -2 -2 -2 -2 -2 -2 -2 -2 -2 -2 -2 -2 -2 -1 -1 -1 -1 -1 -1 -1 -1 -1 -1 -1 -1 nan
nan -1 -2 -2 -2 -2 -2 -2 -1 -1 -1 -1 -1 -2 -2 -1 -1 -1 -1 -1 -1 -1 -1 -1 -1 -1 -1 -1 -1 -1 -1 -1 -1 -1 -1 -1 -1 -1 -0 -1 -1 -1 -1 -1 -1 -1 -1 -1 -1 -1 -2 -2 -2 -2 -2 -2 -2 -2 -1 -1 -1 -1 -1 -1 -1 -1 -1 -1 nan
nan -2 -2 -2 -2 -1 -1 -1 -1 -1 -1 -2 -2 -2 -2 -2 -2 -2 -2 -2 -1 -1 -1 -1 -1 -1 -1 -1 -1 -1 -1 -1 -1 -1 -1 -1 -1 -1 -1 -0 -0 -0 -1 -1 -1 -1 -1 -1 -1 -1 -1 -1 -1 -2 -2 -2 -2 -2 -2 -1 -1 -1 -1 -1 -1 -1 -1 -1 nan
nan -1 -1 -1 -1 -1 -1 -1 -1 -1 -1 -1 -2 -2 -2 -2 -2 -2 -2 -2 -2 -1 -1 -1 -1 -1 -1 -1 -1 -1 -1 -1 -1 -1 -1 -1 -2 -1 -1 -1 -1 -1 -1 -1 -1 -1 -1 -0 -1 -1 -1 -1 -1 -1 -1 -2 -2 -2 -2 -1 -1 -1 -1 -1 -1 -1 -1 -1 nan
nan -0 0 0 0 0 0 -0 -0 -0 -0 -1 -1 -1 -1 -1 -1 -1 -2 -2 -2 -2 -2 -2 -2 -2 -2 -1 -1 -2 -2 -2 -2 -2 -2 -2 -2 -2 -2 -1 -1 -1 -1 -1 -1 -1 -1 -1 -1 -1 -1 -1 -2 -2 -2 -2 -2 -2 -2 -2 -1 -0 -1 -1 -0 -0 -1 -1 nan
nan 1 1 1 1 1 1 1 1 1 1 1 1 1 1 0 0 -0 -1 -1 -1 -1 -1 -1 -1 -2 -2 -2 -1 -1 -1 -2 -2 -2 -2 -2 -2 -2 -2 -2 -2 -2 -2 -2 -2 -2 -2 -2 -1 -2 -2 -2 -2 -3 -3 -3 -3 -3 -3 -3 -2 -1 -1 -1 -1 0 0 -0 nan
nan 1 1 1 1 1 2 2 1 1 1 1 2 2 2 1 1 1 1 1 1 1 1 1 0 -0 -0 -1 -0 -0 -0 -1 -1 -1 -1 -1 -2 -2 -2 -2 -3 -3 -3 -3 -3 -3 -3 -3 -3 -3 -3 -3 -3 -4 -4 -4 -4 -3 -3 -3 -3 -3 -2 -1 -1 -0 1 0 nan
nan 0 0 0 0 0 0 1 1 1 1 1 1 1 1 1 1 1 1 1 1 1 1 2 2 2 1 1 1 1 1 1 1 0 0 0 -0 -0 -1 -1 -1 -2 -2 -3 -3 -4 -5 -5 -5 -4 -4 -4 -3 -3 -4 -5 -5 -4 -3 -3 -3 -3 -3 -2 -2 -2 -0 -0 nan
nan nan nan nan nan nan nan nan nan nan nan nan nan nan nan nan nan nan nan nan nan nan nan nan nan nan nan nan nan nan nan nan nan nan nan nan nan nan nan nan nan nan nan nan nan nan nan nan nan nan nan nan nan nan nan nan nan nan nan nan nan nan nan nan nan nan nan nan nan
Wind_Speed
28 28 27 24 23 22 21 20 17 15 13 12 12 13 15 17 18 18 18 18 18 18 18 18 18 18 18 17 15 14 16 21 24 25 27 29 33 37 40 42 42 43 44 45 46 46 45 43 42 42 42 42 43 44 46 48 51 54 55 55 53 51 49 46 44 43 42 43 45
21 21 21 21 20 19 17 15 15 14 12 11 11 12 13 15 16 16 16 16 15 14 14 14 15 16 16 16 15 13 13 16 19 21 22 24 27 32 37 40 41 41 41 42 43 45 44 42 40 40 39 38 38 39 40 43 46 49 51 53 54 53 51 49 47 46 44 44 44
16 17 19 20 20 18 17 16 16 15 13 12 12 12 12 13 15 16 17 17 15 14 13 13 13 13 14 14 14 14 13 14 15 16 17 18 20 24 29 34 38 40 40 39 39 40 41 40 39 38 37 36 34 34 34 35 37 40 43 46 47 48 47 46 45 45 44 44 44
17 18 20 20 19 18 17 16 15 14 14 13 13 13 14 15 17 18 18 17 16 14 14 14 14 13 13 12 13 13 14 14 14 15 15 15 15 17 20 24 30 36 40 40 40 40 41 42 41 38 35 33 32 31 31 32 34 36 38 40 41 41 41 41 41 41 42 43 44
19 19 20 19 17 16 15 14 13 13 13 12 12 13 15 16 17 18 18 17 16 14 13 13 14 14 14 13 12 12 13 14 15 15 15 16 16 16 16 17 20 26 32 36 39 41 42 43 43 40 36 33 30 29 30 31 33 34 36 38 38 39 39 39 39 39 39 40 41
20 20 19 18 16 15 14 12 11 11 11 11 12 13 14 15 16 16 17 17 17 16 14 13 13 14 14 14 13 12 11 12 14 15 16 17 18 19 19 18 18 19 22 26 30 33 36 38 39 38 36 33 31 30 30 30 30 31 32 35 36 38 38 39 39 39 40 40 41
23 23 22 21 20 19 17 16 14 11 9 9 9 10 11 11 12 12 14 15 16 16 15 14 14 13 13 14 14 13 12 12 13 14 16 17 19 20 21 22 21 21 20 21 21 23 27 31 34 35 35 34 33 33 33 32 31 31 30 30 32 33 35 36 37 38 39 40 42
27 28 27 26 25 24 23 22 19 16 13 11 10 9 8 7 7 8 9 10 11 13 14 14 14 14 14 13 12 12 13 13 14 15 16 17 18 19 21 22 23 24 24 24 23 21 22 26 30 33 34 34 34 34 33 34 35 35 34 31 29 29 30 31 32 34 35 37 39
27 26 25 24 24 24 26 27 26 24 22 22 21 20 17 14 12 10 8 7 6 8 10 11 12 13 13 13 13 12 11 11 12 14 15 17 17 18 19 20 21 23 24 25 24 21 19 21 25 30 32 33 33 32 32 33 36 38 36 33 29 27 25 25 26 28 30 32 34
25 24 23 23 24 25 27 29 29 29 28 28 28 27 25 24 23 20 18 15 11 9 8 8 9 10 11 11 12 12 12 12 13 14 15 17 17 17 18 18 18 19 19 19 19 18 17 17 18 21 25 27 28 29 30 32 34 34 32 28 25 23 22 22 22 23 25 26 28
29 28 27 27 28 28 28 28 28 28 27 26 27 28 29 28 27 26 24 21 19 17 15 12 10 9 9 9 10 10 11 12 13 15 16 17 18 18 18 18 18 17 17 16 16 16 16 16 16 16 17 19 22 24 26 29 29 28 26 23 22 22 23 24 24 25 25 25 26
34 33 32 31 31 30 29 29 28 27 25 25 26 27 27 26 26 25 23 22 22 22 21 19 17 15 13 11 10 9 9 10 11 12 13 14 15 16 16 17 17 17 16 16 15 15 16 17 18 18 18 18 19 21 23 25 26 26 25 24 23 24 25 27 28 28 29 29 29
34 34 33 32 31 30 30 30 29 28 27 26 26 26 26 25 24 23 22 21 21 21 20 20 19 19 18 16 14 11 9 8 7 7 7 8 9 10 12 13 15 16 16 16 16 16 16 18 20 21 22 22 22 23 24 25 26 26 26 26 26 27 28 29 30 31 32 32 33
34 33 33 32 31 31 31 31 31 29 28 28 27 27 26 26 24 23 22 20 20 19 19 18 18 18 18 18 16 15 12 10 8 6 5 5 5 6 7 9 11 13 15 17 17 18 18 18 19 21 22 23 24 24 24 24 24 24 25 27 28 29 30 30 30 31 32 33 34
33 33 32 31 31 31 31 32 31 30 29 28 28 27 26 26 25 24 22 21 20 20 19 18 17 17 16 16 16 16 15 13 11 9 8 6 5 5 5 5 7 8 10 12 14 16 17 17 18 18 19 20 20 20 19 19 19 21 23 26 28 29 29 28 27 27 28 29 30
33 32 32 31 31 31 31 31 30 29 28 27 26 26 25 25 24 23 22 22 21 21 20 19 18 16 15 15 14 14 14 14 13 12 10 9 8 7 6 5 5 4 4 5 6 8 11 13 14 15 16 16 15 14 14 13 14 15 18 21 23 25 25 24 24 24 25 26 26
34 33 32 31 31 31 31 30 29 28 27 26 25 24 24 23 22 21 21 21 20 20 20 19 18 17 16 15 14 14 13 12 12 11 11 10 9 9 8 7 7 6 6 5 4 4 4 5 7 9 11 12 12 12 11 10 10 10 11 13 15 17 18 19 19 20 21 22 22
33 33 32 32 32 32 31 30 28 27 26 25 24 23 23 22 21 20 19 19 18 18 18 18 17 17 16 16 15 15 14 13 12 12 11 11 10 9 8 7 6 6 5 4 4 3 3 2 1 3 5 7 9 9 10 10 10 9 9 9 9 10 11 12 13 14 15 16 17
32 32 32 33 32 32 31 29 28 27 26 24 23 22 21 21 20 19 18 18 17 17 16 15 15 15 15 15 15 14 14 14 14 13 13 12 12 11 10 10 9 8 7 6 5 4 4 3 3 2 2 3 5 6 7 8 9 9 9 9 9 9 9 10 10 11 11 12 13
31 32 32 32 31 30 29 28 27 26 24 23 23 22 21 21 20 19 19 19 18 17 15 15 14 14 14 14 14 14 13 13 13 13 13 12 12 12 12 12 12 12 12 11 11 10 9 8 7 7 6 5 5 5 6 7 8 8 9 9 9 10 10 9 9 10 10 11 12
30 30 30 29 28 28 27 26 25 24 23 23 22 22 22 21 21 21 20 20 19 18 17 16 15 15 14 14 14 14 14 13 13 12 12 12 11 12 12 12 13 13 14 14 14 15 14 14 13 13 12 11 10 10 9 8 8 9 9 10 10 11 11 11 11 11 11 11 11
28 28 28 27 26 26 25 24 24 23 22 22 22 22 22 21 21 21 20 20 19 18 18 17 17 16 16 15 15 15 14 14 13 12 12 11 11 11 11 11 12 12 13 14 15 15 16 17 17 17 17 17 16 16 15 14 13 12 12 12 12 13 13 14 14 14 14 13 13
27 27 26 26 25 25 24 23 23 22 22 22 21 21 21 21 21 20 19 19 18 18 18 18 17 17 16 16 15 15 14 14 13 13 12 12 11 11 11 11 11 11 12 13 14 14 15 16 17 18 18 18 18 18 17 17 16 15 15 16 16 16 17 17 17 17 17 17 17
27 26 26 25 25 24 24 23 23 22 22 22 22 21 21 20 20 19 19 18 18 18 18 17 17 16 16 15 15 14 14 13 13 13 12 12 12 11 11 11 11 11 12 12 13 14 14 15 16 17 17 18 18 18 17 17 16 16 16 17 17 18 19 20 20 20 20 19 19
26 26 26 25 25 24 24 24 23 23 23 23 22 22 21 21 20 20 19 18 18 18 17 16 16 15 15 15 15 14 14 13 13 13 13 12 12 12 12 12 11 11 12 12 13 13 14 15 16 17 17 18 19 19 19 18 18 17 17 17 17 18 19 20 20 21 21 21 21
26 25 25 25 25 24 24 24 24 24 24 23 23 22 22 22 21 20 20 19 19 18 17 17 16 16 16 15 15 14 14 14 14 14 13 13 13 13 13 13 13 13 13 13 13 13 14 14 15 16 17 18 19 20 20 20 20 20 19 19 19 19 19 20 20 21 21 22 22
26 26 25 25 25 25 25 25 25 24 24 24 24 23 23 22 21 21 20 20 19 19 18 18 17 17 17 17 16 16 16 15 15 15 14 14 14 14 14 14 14 14 14 14 14 14 14 15 15 16 17 17 18 19 20 21 21 21 21 21 21 21 21 21 21 22 22 22 22
27 26 26 26 26 26 25 25 25 25 25 24 24 24 23 22 22 21 21 21 20 20 19 19 19 19 18 18 18 17 17 17 16 16 16 15 15 15 14 14 14 15 15 15 15 15 16 16 16 17 17 18 18 18 19 20 21 21 22 22 22 22 23 23 23 23 23 23 23
27 26 26 26 26 26 26 26 26 26 25 25 24 23 23 22 22 22 22 22 22 21 21 21 21 20 19 19 19 18 18 18 17 17 17 16 16 16 16 15 15 15 15 15 16 16 17 17 18 18 18 19 19 19 19 20 20 20 21 22 22 22 23 23 24 24 25 25 25
26 26 26 26 26 26 26 26 26 25 25 24 24 23 23 23 23 23 23 23 23 23 22 22 21 21 20 20 20 19 19 19 19 18 18 18 18 18 17 17 17 17 17 16 17 17 17 18 18 19 19 20 20 20 20 21 21 21 21 21 22 22 22 23 23 24 25 25 26
25 25 25 25 25 25 25 25 25 25 24 24 24 24 24 24 24 24 24 24 23 23 22 22 21 21 21 21 21 20 20 20 20 20 19 19 19 19 19 19 19 19 18 18 18 18 18 18 18 19 19 20 20 21 21 21 22 22 22 22 22 22 23 23 23 24 24 25 25
25 25 25 25 25 25 25 25 24 24 24 24 24 24 24 24 24 24 24 24 24 23 23 23 23 23 22 22 22 22 22 22 22 21 21 21 20 20 20 20 20 20 20 20 20 20 20 20 20 20 20 20 20 21 21 21 22 22 23 23 23 23 23 24 24 24 24 24 25
26 26 26 26 26 25 25 25 24 24 24 24 24 24 24 24 24 24 24 24 25 25 25 25 25 25 25 25 24 24 24 23 23 23 22 22 21 21 21 21 21 21 21 21 21 21 21 21 22 22 22 22 22 22 21 21 22 22 22 23 23 24 24 24 24 24 24 24 25
27 27 27 27 27 26 26 26 25 25 25 25 25 25 25 25 25 25 25 25 26 26 26 26 26 26 26 26 26 25 25 25 25 24 24 23 23 22 22 22 22 22 21 21 21 21 22 22 22 22 23 23 23 23 23 23 23 23 23 23 23 24 24 24 25 25 25 25 25
28 28 28 28 28 28 27 27 27 27 27 26 27 27 27 27 27 27 27 27 27 27 27 27 27 27 27 27 27 27 27 26 26 26 26 25 25 24 24 23 23 23 22 22 22 22 22 22 23 23 23 24 24 24 24 24 24 24 24 24 24 24 24 25 25 25 25 25 25
29 29 29 29 29 29 29 29 29 29 29 29 29 29 29 29 29 29 29 29 28 28 28 28 28 28 28 28 28 28 28 28 28 28 28 27 27 26 26 25 25 24 24 24 24 23 23 23 24 24 24 24 25 25 24 24 24 24 24 24 24 25 25 25 25 25 25 25 25
30 30 30 30 30 30 30 30 30 30 31 31 31 31 31 31 31 31 31 31 31 31 31 31 31 31 31 30 31 31 31 30 30 30 29 29 29 28 28 28 27 27 26 26 25 25 25 25 25 25 25 26 26 25 25 25 25 24 24 24 24 24 25 25 25 25 25 25 25
29 30 30 30 30 30 31 31 31 31 31 32 32 32 32 32 32 33 33 33 33 33 33 33 33 33 33 33 33 33 32 32 32 32 31 31 31 31 30 30 29 29 29 28 28 27 27 27 26 26 26 26 26 26 26 25 25 25 25 25 25 25 25 25 25 25 25 25 25
28 28 28 29 29 29 29 29 30 30 30 30 30 31 31 31 32 32 33 33 33 34 34 34 34 35 35 35 34 34 34 34 34 34 33 33 33 33 32 32 32 31 31 30 30 29 28 28 27 26 26 25 25 25 25 25 25 25 25 25 25 25 25 25 26 26 26 25 25
25 25 26 26 26 26 26 26 27 27 27 27 27 28 28 28 29 29 29 30 30 31 31 32 32 33 33 34 34 34 34 34 34 34 34 34 35 34 34 34 34 33 33 32 31 30 29 27 26 24 23 23 23 23 24 25 26 26 26 26 26 26 26 26 26 26 26 26 26
23 23 23 23 23 23 23 23 23 23 23 23 23 23 24 24 24 24 24 25 26 26 27 27 28 28 29 30 30 31 31 31 32 33 33 34 34 35 35 35 35 35 34 34 32 30 28 25 23 21 20 19 19 20 22 24 25 26 26 26 26 26 26 27 27 26 26 26 27
Wind_Direction
242 238 232 224 218 215 214 217 222 227 232 236 241 246 250 254 257 260 260 259 257 255 255 256 258 259 257 252 249 242 232 225 220 218 217 217 216 216 217 219 222 225 228 229 231 230 229 225 220 216 214 214 217 220 222 222 221 219 219 220 222 224 226 228 230 233 234 236 237
226 223 220 218 215 211 208 210 217 223 227 231 238 246 252 258 261 262 260 257 255 255 257 259 260 260 257 251 245 239 232 223 218 215 215 215 215 215 216 217 220 224 227 229 230 231 228 222 215 211 210 212 214 217 220 223 224 224 223 224 225 226 228 229 230 230 230 230 231
178 178 181 184 187 187 187 191 199 203 205 208 214 223 232 240 245 249 250 252 253 257 262 265 266 264 260 254 245 237 230 223 219 218 219 220 219 217 217 219 219 220 223 226 229 231 230 226 219 214 212 212 212 213 216 219 222 223 223 224 225 226 226 226 226 225 224 223 223
136 152 166 168 169 171 176 183 188 193 198 204 212 220 227 231 233 233 234 235 240 248 257 265 269 270 267 260 249 239 231 226 223 222 225 228 229 227 223 220 218 217 219 222 225 228 231 231 227 221 217 215 215 216 217 218 220 220 220 220 220 221 222 223 222 221 220 219 219
135 148 156 156 159 164 170 176 182 189 196 205 215 222 225 227 227 226 225 224 224 228 238 251 261 267 271 269 261 248 238 232 229 228 229 232 237 239 237 230 222 218 216 217 219 223 226 227 226 223 221 221 223 225 226 225 225 224 223 222 221 221 221 224 225 226 225 224 224
138 143 137 138 142 149 156 160 166 176 190 202 211 216 217 217 217 219 220 222 223 224 225 227 235 247 259 268 269 263 252 243 238 236 234 234 237 240 242 242 237 228 221 217 217 218 220 221 221 221 222 226 231 235 236 234 233 231 229 228 227 226 226 227 229 231 234 235 236
124 122 117 119 120 123 126 126 129 143 165 183 195 202 205 208 210 213 216 220 223 223 222 218 217 221 233 248 259 264 263 257 251 246 242 240 239 239 241 243 242 240 236 231 227 224 222 220 219 220 223 228 232 235 237 239 241 239 236 233 232 231 230 229 230 232 234 238 241
111 108 107 109 110 110 109 108 110 114 118 122 128 135 146 163 175 185 196 205 210 213 215 214 213 212 214 218 228 241 251 255 255 253 250 248 245 243 243 243 243 243 244 244 244 241 235 227 223 221 222 224 226 228 231 236 242 243 241 237 235 234 234 234 233 234 235 238 241
101 104 105 105 104 102 101 99 99 99 98 96 95 98 102 107 110 115 120 129 158 183 194 197 200 201 202 202 202 206 213 222 232 237 240 241 242 242 242 242 241 241 242 244 243 242 238 233 229 227 225 224 224 224 226 233 238 241 240 237 236 237 240 241 241 242 242 243 244
90 94 96 94 92 91 91 92 92 92 91 87 85 87 89 90 90 89 88 90 99 116 136 154 169 177 181 182 182 182 184 187 192 198 204 209 214 218 222 225 226 226 226 226 225 224 224 228 231 232 231 230 230 229 230 232 234 235 236 236 238 242 246 249 249 249 248 247 246
77 79 80 80 79 79 81 83 84 85 83 79 76 77 78 80 81 81 82 84 86 88 91 99 114 130 142 149 154 159 164 169 175 179 181 183 185 189 194 198 202 203 203 202 204 210 216 223 229 233 235 236 236 235 234 232 231 231 233 238 243 247 249 250 250 248 245 245 244
67 68 68 69 69 70 72 72 73 74 73 69 66 66 68 71 73 77 80 83 82 80 79 81 85 91 98 107 118 131 143 152 160 165 168 170 172 174 177 180 184 187 190 193 197 206 217 225 230 233 236 238 239 237 233 229 227 227 230 235 241 244 245 245 244 241 240 239 239
62 62 62 63 63 63 63 63 64 63 62 59 57 57 58 60 64 68 74 78 78 76 73 73 74 76 77 81 88 97 108 120 134 148 158 163 167 172 175 178 181 185 188 193 196 203 212 222 227 231 233 235 235 232 228 224 223 223 224 227 232 236 237 237 236 236 235 235 235
60 59 59 59 59 58 58 58 57 56 54 52 50 50 51 52 53 56 60 63 65 65 65 66 68 67 66 66 70 76 83 92 101 112 127 143 160 176 187 192 195 199 202 204 206 207 209 213 219 224 228 230 231 230 228 225 223 222 223 224 227 229 231 232 232 233 233 233 234
55 55 55 55 55 54 54 54 53 51 49 47 45 45 45 45 46 46 47 47 48 48 50 53 56 57 57 58 60 65 71 79 89 98 109 120 134 151 171 187 198 204 207 211 213 214 212 210 211 214 219 224 228 232 234 235 233 229 227 227 228 229 230 232 233 234 234 235 236
49 50 50 50 50 50 50 50 50 48 46 44 42 41 41 42 41 41 40 39 38 38 37 37 38 39 40 43 48 53 59 67 75 83 89 94 97 101 106 113 121 132 149 171 190 199 203 204 204 204 206 209 214 220 228 235 239 239 237 235 234 234 235 236 237 237 237 236 237
47 48 48 48 48 48 48 48 47 46 44 42 41 40 39 39 39 38 37 36 35 33 32 30 28 26 25 26 28 32 36 43 50 55 59 60 61 62 65 70 75 80 85 93 106 126 152 174 186 192 195 197 198 201 204 210 218 228 238 243 244 243 241 241 239 238 238 237 238
51 51 50 49 48 47 46 46 46 45 44 42 40 39 39 39 38 38 37 35 34 32 31 28 26 23 21 20 19 18 18 19 21 23 25 26 26 25 24 24 27 32 38 45 53 59 64 77 138 183 193 197 197 197 197 197 199 204 213 226 238 245 248 247 246 244 243 244 246
53 53 52 51 49 48 47 46 46 46 45 44 42 41 40 40 39 39 38 37 35 33 31 29 27 25 23 22 20 18 15 13 11 9 7 5 3 1 358 355 353 350 348 347 347 346 345 342 335 313 266 232 218 213 211 210 210 210 210 212 218 228 237 246 254 258 261 261 261
51 52 52 52 51 50 49 48 48 48 47 47 46 45 44 42 40 39 39 38 36 34 33 31 29 26 24 23 22 20 19 16 12 8 4 359 354 350 347 343 340 337 334 331 329 326 322 318 314 312 308 299 284 264 248 239 234 231 230 228 227 226 228 232 240 251 260 267 269
49 49 50 51 51 51 51 50 50 49 48 48 47 46 45 43 41 39 38 36 35 33 32 31 29 26 24 21 20 19 18 16 13 10 5 360 354 349 343 338 334 330 327 325 323 321 319 317 315 314 313 312 310 305 296 285 273 263 256 251 248 245 241 238 236 237 241 249 258
47 47 46 47 47 47 47 47 47 46 45 44 43 43 42 41 40 38 36 34 32 31 30 29 28 26 24 21 20 18 17 14 11 8 4 0 356 350 344 338 332 326 322 318 316 315 315 315 314 314 314 314 313 311 309 305 299 292 285 279 275 270 265 259 253 249 246 245 247
45 44 43 42 42 42 41 41 40 40 39 38 37 37 36 36 35 34 32 30 29 27 27 26 25 24 23 21 19 18 16 14 11 8 4 1 357 351 346 339 332 326 320 315 311 309 308 308 307 308 308 309 309 308 307 305 302 298 293 289 286 283 280 277 272 267 262 258 255
42 41 40 39 38 37 36 36 35 34 33 32 31 30 29 29 28 27 25 24 23 22 22 21 21 20 19 18 16 14 12 10 9 7 4 1 357 352 347 341 335 329 323 319 315 311 307 304 302 300 299 299 300 300 300 299 297 293 289 286 283 281 280 279 278 276 273 269 265
40 39 38 37 36 35 33 32 31 30 30 28 27 25 24 23 22 20 18 17 16 16 15 14 13 13 12 11 10 8 6 4 3 2 360 357 354 350 346 342 337 333 329 325 322 317 313 308 303 299 296 294 293 293 293 293 292 290 286 282 278 275 273 272 272 273 273 272 270
40 38 37 35 34 33 32 31 30 29 28 26 25 23 22 20 18 16 14 13 12 11 9 8 6 5 5 4 2 0 358 357 356 355 353 351 349 345 342 339 336 333 331 328 325 321 317 313 308 303 299 295 293 291 290 289 289 288 287 284 281 277 274 271 269 268 268 268 268
38 37 35 34 32 31 30 29 28 27 26 25 24 22 21 18 16 14 13 12 11 9 6 4 3 2 1 359 356 355 354 353 352 350 349 347 344 341 338 335 332 330 328 326 323 320 317 314 311 307 303 300 296 293 291 289 288 287 286 286 284 282 279 276 273 271 268 267 266
35 34 33 31 30 29 29 27 27 26 25 24 23 22 20 18 16 14 14 13 10 8 6 5 4 2 360 357 355 354 352 350 349 348 347 345 343 340 336 333 330 327 324 322 320 317 314 312 311 308 306 303 300 297 295 292 290 288 287 286 285 284 283 281 278 276 273 271 269
33 31 30 29 28 27 26 25 25 24 23 22 21 19 18 16 15 14 14 12 11 10 9 8 6 3 1 359 357 355 353 351 349 348 346 345 342 340 337 334 331 328 324 321 318 315 313 311 309 307 306 304 302 300 299 297 295 293 290 289 287 286 285 283 281 279 277 275 273
31 29 28 26 25 24 24 23 22 21 20 19 17 16 14 14 13 13 13 12 11 11 11 9 7 4 2 1 359 357 355 353 351 349 347 345 343 342 339 337 334 331 328 325 321 318 315 312 309 307 305 303 302 301 300 299 297 296 294 293 291 289 287 285 283 281 279 277 275
29 28 26 25 24 23 22 21 19 18 16 14 12 11 10 11 11 11 10 10 10 10 8 7 5 3 2 1 359 358 356 354 352 350 349 347 346 344 342 339 337 334 332 329 327 324 320 317 313 310 307 304 302 300 299 298 297 296 295 294 293 292 290 288 287 285 283 281 278
27 25 24 23 22 21 20 18 16 14 12 10 8 8 8 8 8 8 7 6 6 4 3 2 1 0 359 358 358 357 355 354 352 351 350 349 348 346 344 342 339 337 335 333 331 329 326 323 320 316 312 309 305 302 300 298 296 294 293 293 292 291 291 290 288 287 286 284 282
24 22 21 20 19 18 16 15 13 11 9 7 6 5 5 5 4 4 3 2 2 1 0 359 358 358 357 356 355 354 353 352 351 350 348 348 347 346 344 342 340 338 337 335 333 331 329 326 324 321 318 314 311 308 304 301 298 295 293 292 290 289 289 289 288 287 286 285 284
20 19 18 17 16 14 13 12 10 8 7 6 5 4 3 2 1 1 1 0 0 359 358 357 357 356 355 354 353 352 351 350 349 347 346 345 344 344 343 341 339 338 337 335 334 331 329 327 325 323 320 317 315 312 310 307 303 300 297 294 292 290 289 288 287 286 285 284 283
16 15 14 13 12 11 10 8 7 6 5 4 4 3 2 1 0 0 360 359 359 357 356 355 355 354 353 352 351 350 349 348 347 346 345 344 343 342 341 339 338 337 336 334 333 331 329 327 325 323 321 318 316 314 312 310 307 305 302 300 298 295 293 291 289 287 286 284 283
13 12 11 10 9 8 7 6 4 3 3 3 3 2 2 1 360 359 359 358 357 356 355 354 352 351 351 350 350 349 348 348 347 346 345 343 342 341 340 338 337 336 334 333 331 330 328 327 325 323 321 319 317 315 313 311 308 306 304 302 301 300 298 296 294 293 291 290 288
10 9 7 6 5 5 4 3 2 1 1 1 1 1 0 359 359 358 357 357 356 355 354 353 352 351 350 350 350 349 348 347 346 346 345 343 342 341 340 338 337 335 334 332 331 329 328 327 325 323 321 320 318 315 313 311 309 308 305 303 302 301 300 299 297 297 297 296 295
7 5 4 3 2 1 0 360 359 358 358 358 358 358 357 357 357 356 356 355 354 354 353 352 351 350 350 349 349 349 348 347 346 346 345 344 343 342 341 339 338 336 334 333 332 330 329 327 326 325 323 322 320 318 316 314 312 310 308 306 304 302 300 298 297 297 298 299 298
4 2 0 359 358 357 356 356 355 354 354 354 353 353 353 353 354 354 353 352 352 351 350 350 349 349 348 347 347 347 346 346 346 346 345 345 344 343 342 341 339 338 336 335 334 333 332 331 329 328 327 325 323 321 318 316 313 312 310 308 306 304 301 299 297 296 296 297 298
1 359 357 356 354 353 352 351 351 350 349 348 347 347 348 349 349 348 348 347 347 346 345 345 345 345 344 343 343 343 343 343 343 344 344 344 343 343 342 342 341 339 338 338 337 337 337 337 336 335 334 332 328 323 319 316 314 312 310 308 307 305 303 301 299 296 295 296 296
358 357 355 354 352 351 349 349 348 347 345 344 343 343 343 343 342 341 340 340 340 339 339 339 338 338 337 337 336 336 336 337 338 338 339 339 340 340 340 339 339 338 338 339 340 341 343 343 343 342 340 336 330 324 320 317 315 313 311 309 308 306 305 303 301 299 297 295 295
Height
1415 1416 1416 1417 1417 1417 1418 1419 1419 1419 1418 1418 1418 1419 1420 1420 1421 1422 1423 1424 1424 1425 1425 1425 1425 1425 1426 1426 1425 1425 1425 1425 1426 1426 1427 1428 1428 1429 1430 1430 1432 1435 1437 1439 1441 1443 1445 1446 1448 1450 1450 1451 1452 1453 1454 1455 1456 1458 1460 1462 1464 1465 1466 1468 1470 1472 1475 1477 1479
1415 1415 1416 1417 1418 1418 1418 1417 1417 1417 1417 1417 1417 1418 1419 1419 1420 1420 1421 1422 1422 1423 1423 1424 1424 1424 1425 1425 1425 1425 1425 1425 1425 1426 1427 1428 1428 1429 1430 1430 1430 1432 1435 1437 1439 1441 1443 1445 1446 1448 1449 1450 1450 1451 1452 1453 1455 1457 1459 1461 1462 1464 1465 1467 1469 1471 1473 1475 1477
1412 1412 1413 1414 1415 1414 1413 1413 1413 1413 1413 1413 1414 1415 1417 1418 1419 1420 1420 1420 1420 1421 1421 1422 1422 1423 1423 1424 1424 1424 1424 1424 1425 1425 1426 1427 1429 1429 1430 1430 1430 1431 1433 1435 1437 1439 1441 1443 1445 1446 1447 1448 1449 1450 1452 1453 1455 1456 1457 1459 1460 1462 1464 1465 1467 1469 1471 1472 1474
1411 1410 1410 1410 1410 1410 1410 1410 1410 1411 1411 1412 1412 1413 1415 1415 1416 1417 1418 1419 1420 1420 1420 1421 1421 1422 1422 1422 1422 1422 1423 1423 1424 1425 1425 1427 1428 1429 1430 1431 1431 1431 1432 1434 1435 1437 1439 1441 1443 1445 1446 1447 1448 1449 1451 1452 1454 1455 1456 1457 1458 1460 1461 1463 1464 1466 1467 1468 1470
1410 1410 1409 1409 1409 1409 1409 1409 1410 1410 1410 1411 1412 1413 1414 1415 1416 1416 1416 1417 1418 1419 1420 1420 1420 1421 1421 1421 1421 1421 1421 1422 1423 1424 1425 1425 1427 1428 1430 1430 1431 1432 1433 1433 1435 1436 1437 1439 1441 1442 1444 1445 1446 1448 1449 1451 1453 1455 1455 1456 1457 1457 1458 1460 1462 1463 1465 1466 1467
1410 1409 1409 1409 1408 1408 1409 1410 1410 1410 1410 1410 1411 1413 1414 1414 1415 1415 1416 1416 1417 1417 1418 1419 1420 1420 1420 1420 1420 1420 1420 1421 1422 1423 1423 1425 1426 1427 1429 1430 1431 1432 1433 1434 1434 1435 1436 1438 1439 1440 1442 1442 1444 1445 1447 1450 1452 1454 1455 1455 1456 1456 1457 1458 1459 1460 1462 1464 1465
1409 1409 1409 1409 1409 1409 1409 1410 1410 1410 1410 1410 1412 1413 1414 1414 1414 1414 1415 1415 1416 1416 1416 1417 1417 1418 1419 1420 1420 1419 1420 1420 1421 1422 1423 1424 1425 1426 1427 1429 1430 1431 1432 1433 1434 1435 1436 1437 1438 1439 1440 1441 1442 1443 1445 1447 1450 1452 1453 1454 1455 1455 1455 1456 1457 1458 1460 1460 1462
1408 1409 1410 1410 1410 1409 1409 1410 1410 1410 1410 1411 1413 1413 1414 1414 1414 1414 1414 1414 1415 1415 1416 1416 1416 1416 1417 1417 1418 1419 1419 1420 1420 1421 1422 1423 1424 1425 1426 1427 1428 1429 1430 1432 1434 1435 1436 1437 1438 1439 1440 1440 1441 1441 1443 1445 1447 1450 1451 1452 1453 1453 1454 1455 1455 1456 1457 1458 1459
1410 1410 1411 1411 1410 1410 1409 1409 1409 1410 1411 1413 1414 1414 1414 1414 1414 1414 1414 1414 1415 1415 1415 1415 1415 1415 1415 1415 1416 1416 1417 1419 1420 1420 1421 1422 1423 1424 1425 1426 1427 1428 1429 1430 1432 1434 1435 1436 1437 1438 1439 1439 1440 1440 1441 1442 1445 1447 1449 1450 1451 1451 1452 1453 1454 1455 1455 1456 1456
1412 1412 1412 1412 1411 1410 1410 1409 1410 1411 1413 1414 1415 1415 1415 1414 1414 1414 1415 1415 1415 1415 1415 1415 1415 1415 1415 1415 1415 1415 1416 1417 1418 1419 1420 1422 1423 1424 1425 1426 1426 1427 1428 1430 1431 1433 1435 1435 1436 1437 1437 1438 1438 1439 1440 1441 1443 1445 1446 1448 1449 1450 1450 1451 1452 1453 1454 1454 1455
1413 1413 1413 1412 1411 1411 1410 1410 1411 1412 1414 1415 1415 1415 1414 1414 1414 1414 1415 1416 1415 1415 1415 1415 1415 1415 1415 1415 1416 1416 1416 1417 1417 1418 1419 1420 1421 1422 1424 1425 1426 1428 1429 1430 1431 1432 1433 1434 1435 1436 1436 1437 1437 1438 1439 1440 1441 1443 1445 1445 1446 1448 1449 1449 1450 1451 1451 1452 1452
1414 1414 1413 1413 1412 1412 1412 1412 1412 1413 1414 1415 1415 1415 1414 1414 1414 1415 1415 1416 1415 1416 1416 1416 1416 1416 1416 1416 1417 1417 1417 1418 1419 1419 1420 1420 1420 1420 1421 1422 1424 1425 1427 1429 1431 1432 1433 1433 1434 1435 1435 1436 1437 1437 1438 1439 1440 1442 1443 1444 1445 1445 1446 1447 1448 1448 1449 1449 1450
1415 1415 1414 1414 1414 1414 1414 1414 1413 1414 1414 1415 1415 1415 1415 1414 1415 1415 1415 1416 1416 1416 1417 1416 1416 1417 1417 1417 1418 1418 1418 1419 1419 1419 1420 1420 1421 1421 1422 1422 1423 1425 1426 1427 1429 1431 1432 1433 1434 1434 1435 1435 1436 1437 1437 1438 1440 1440 1441 1442 1443 1443 1444 1445 1445 1445 1446 1446 1447
1417 1416 1416 1416 1417 1417 1416 1415 1415 1415 1415 1416 1417 1417 1416 1415 1415 1415 1416 1417 1417 1417 1417 1417 1417 1417 1418 1418 1418 1418 1419 1419 1419 1420 1420 1420 1421 1422 1423 1424 1424 1425 1426 1426 1427 1428 1430 1431 1432 1433 1434 1435 1435 1435 1436 1437 1438 1438 1439 1440 1441 1441 1441 1442 1442 1443 1444 1444 1444
1418 1418 1419 1419 1419 1418 1417 1416 1416 1417 1417 1418 1418 1418 1418 1417 1417 1417 1417 1418 1418 1418 1418 1418 1418 1418 1419 1419 1419 1419 1419 1420 1420 1420 1421 1421 1422 1423 1424 1424 1425 1425 1425 1426 1426 1427 1427 1428 1429 1430 1431 1433 1434 1434 1435 1435 1436 1436 1437 1438 1438 1439 1439 1439 1440 1441 1441 1442 1442
1420 1421 1421 1421 1421 1420 1418 1418 1418 1419 1419 1420 1420 1420 1420 1419 1419 1419 1419 1419 1419 1419 1419 1419 1419 1420 1420 1420 1420 1420 1420 1420 1420 1421 1421 1422 1423 1423 1424 1424 1424 1425 1425 1426 1426 1426 1427 1427 1427 1427 1428 1429 1430 1432 1433 1434 1434 1435 1435 1435 1436 1436 1436 1437 1438 1438 1439 1440 1440
1423 1424 1424 1423 1422 1421 1421 1421 1421 1421 1422 1422 1422 1422 1422 1421 1421 1421 1421 1421 1421 1421 1421 1421 1421 1421 1421 1420 1420 1420 1420 1420 1421 1421 1422 1422 1423 1423 1423 1424 1424 1425 1425 1425 1426 1426 1426 1427 1427 1427 1427 1427 1428 1429 1429 1430 1431 1432 1434 1434 1434 1435 1435 1435 1436 1436 1436 1437 1437
1427 1426 1426 1425 1424 1424 1423 1423 1424 1424 1424 1424 1424 1424 1424 1424 1424 1423 1423 1423 1423 1423 1423 1423 1422 1422 1422 1422 1421 1421 1421 1421 1421 1421 1422 1422 1422 1423 1423 1424 1424 1424 1425 1425 1425 1425 1426 1426 1427 1427 1427 1427 1427 1427 1428 1428 1429 1430 1430 1432 1433 1433 1434 1434 1434 1435 1435 1435 1435
1429 1428 1427 1426 1425 1425 1425 1426 1426 1426 1426 1426 1427 1427 1426 1426 1426 1425 1425 1425 1425 1425 1424 1424 1424 1424 1423 1423 1423 1423 1423 1422 1422 1422 1422 1423 1423 1423 1423 1424 1424 1424 1424 1425 1425 1425 1425 1425 1426 1426 1426 1427 1427 1427 1427 1428 1428 1428 1429 1429 1430 1431 1432 1433 1433 1434 1434 1434 1434
1430 1429 1428 1427 1428 1428 1428 1428 1428 1428 1428 1429 1429 1429 1428 1428 1427 1427 1426 1426 1426 1426 1425 1425 1425 1425 1424 1424 1424 1424 1424 1424 1424 1423 1423 1423 1423 1424 1424 1424 1424 1424 1424 1424 1424 1425 1425 1425 1425 1425 1425 1426 1426 1427 1427 1427 1428 1428 1428 1428 1428 1429 1429 1430 1431 1432 1432 1433 1433
1431 1430 1430 1430 1430 1430 1430 1430 1430 1430 1430 1430 1430 1430 1429 1429 1428 1428 1427 1427 1427 1427 1426 1426 1425 1425 1425 1425 1424 1424 1424 1424 1424 1424 1424 1424 1424 1424 1424 1424 1424 1424 1424 1424 1424 1424 1424 1424 1424 1424 1425 1425 1425 1425 1426 1426 1426 1427 1427 1427 1428 1428 1428 1428 1429 1429 1430 1430 1431
1433 1433 1432 1432 1432 1432 1432 1432 1431 1431 1431 1431 1431 1430 1430 1429 1429 1428 1428 1428 1427 1427 1426 1426 1425 1425 1425 1425 1425 1425 1425 1425 1425 1424 1424 1424 1424 1424 1424 1424 1424 1424 1424 1424 1424 1424 1424 1424 1424 1424 1424 1424 1424 1425 1425 1425 1425 1425 1426 1426 1426 1427 1427 1427 1428 1428 1428 1428 1429
1434 1434 1434 1434 1433 1433 1433 1433 1432 1432 1432 1432 1431 1431 1430 1430 1429 1429 1429 1428 1428 1427 1427 1426 1426 1425 1425 1425 1425 1425 1425 1425 1425 1425 1425 1424 1424 1424 1424 1424 1424 1424 1423 1423 1423 1423 1423 1423 1423 1423 1423 1423 1424 1424 1424 1424 1424 1425 1425 1425 1425 1425 1426 1426 1426 1427 1427 1427 1427
1435 1435 1435 1435 1434 1434 1434 1433 1433 1432 1432 1432 1431 1431 1431 1430 1430 1430 1429 1429 1428 1428 1427 1427 1426 1426 1426 1426 1426 1426 1425 1425 1425 1425 1425 1424 1424 1424 1424 1424 1424 1423 1423 1423 1423 1422 1422 1422 1422 1422 1422 1422 1422 1423 1423 1423 1423 1423 1424 1424 1424 1424 1425 1425 1425 1425 1425 1425 1425
1436 1436 1436 1435 1435 1435 1434 1434 1433 1433 1432 1432 1432 1431 1431 1430 1430 1430 1429 1429 1428 1428 1427 1427 1427 1427 1426 1426 1426 1426 1425 1425 1425 1425 1425 1424 1424 1424 1423 1423 1423 1423 1423 1423 1422 1422 1421 1421 1421 1420 1420 1421 1421 1421 1421 1421 1421 1421 1422 1422 1422 1423 1423 1423 1424 1424 1424 1424 1424
1438 1437 1437 1436 1436 1435 1435 1434 1433 1433 1433 1432 1432 1431 1431 1430 1430 1430 1429 1429 1428 1428 1427 1427 1427 1426 1426 1426 1426 1425 1425 1425 1425 1424 1424 1424 1424 1423 1423 1423 1423 1422 1422 1422 1422 1421 1421 1420 1420 1420 1419 1419 1419 1419 1419 1420 1420 1420 1420 1420 1420 1420 1421 1421 1421 1422 1422 1422 1422
1439 1438 1437 1437 1436 1435 1435 1435 1434 1434 1433 1433 1432 1431 1431 1431 1430 1430 1429 1429 1428 1428 1427 1427 1426 1426 1426 1425 1425 1425 1425 1424 1424 1424 1424 1423 1423 1423 1422 1422 1422 1422 1421 1421 1421 1420 1420 1420 1419 1419 1418 1418 1418 1417 1417 1417 1418 1418 1418 1418 1418 1419 1419 1419 1419 1420 1420 1420 1420
1439 1438 1438 1437 1436 1436 1435 1435 1434 1434 1433 1433 1432 1432 1432 1431 1431 1430 1430 1429 1429 1428 1427 1427 1426 1426 1426 1425 1425 1425 1424 1424 1424 1424 1423 1423 1423 1422 1422 1422 1421 1421 1420 1420 1420 1419 1419 1418 1418 1417 1417 1416 1416 1416 1416 1416 1416 1416 1416 1416 1416 1416 1416 1417 1417 1417 1417 1417 1418
1439 1439 1438 1437 1437 1436 1435 1435 1434 1434 1434 1433 1433 1433 1432 1432 1431 1430 1430 1429 1428 1428 1427 1427 1426 1426 1426 1425 1425 1425 1424 1424 1424 1423 1423 1423 1422 1422 1421 1421 1420 1420 1420 1419 1419 1418 1418 1417 1417 1416 1415 1415 1415 1415 1415 1414 1414 1414 1414 1414 1414 1414 1414 1414 1415 1415 1415 1415 1415
1440 1440 1439 1438 1437 1437 1436 1435 1435 1435 1434 1434 1433 1433 1432 1431 1430 1430 1429 1429 1428 1428 1427 1427 1427 1427 1426 1426 1425 1425 1424 1424 1424 1423 1423 1422 1422 1421 1420 1420 1420 1419 1419 1418 1418 1417 1416 1416 1415 1415 1414 1414 1414 1413 1413 1413 1413 1412 1412 1412 1412 1412 1412 1412 1412 1412 1412 1412 1413
1441 1441 1440 1439 1439 1438 1437 1436 1436 1435 1435 1435 1434 1433 1432 1431 1430 1430 1429 1429 1429 1428 1428 1428 1427 1427 1426 1426 1425 1425 1424 1424 1423 1423 1422 1422 1421 1420 1420 1419 1419 1418 1418 1417 1416 1416 1415 1415 1414 1414 1413 1413 1412 1412 1412 1411 1411 1411 1410 1410 1410 1410 1410 1410 1410 1410 1410 1410 1410
1442 1442 1441 1440 1440 1439 1438 1438 1437 1436 1436 1435 1434 1434 1433 1432 1431 1430 1430 1429 1429 1428 1428 1427 1427 1426 1426 1425 1425 1424 1424 1423 1423 1422 1422 1421 1421 1420 1420 1419 1418 1417 1417 1416 1415 1415 1414 1414 1413 1412 1412 1411 1411 1411 1410 1410 1410 1410 1409 1409 1409 1408 1408 1408 1408 1408 1408 1408 1408
1443 1442 1441 1441 1440 1440 1439 1438 1438 1437 1436 1436 1435 1434 1433 1432 1432 1431 1430 1430 1429 1428 1427 1426 1426 1425 1425 1424 1424 1423 1423 1422 1422 1421 1421 1421 1420 1420 1419 1418 1417 1417 1416 1415 1415 1414 1413 1412 1412 1411 1410 1410 1409 1409 1409 1409 1408 1408 1408 1408 1407 1407 1406 1406 1406 1406 1405 1405 1405
1442 1442 1441 1440 1440 1440 1439 1438 1438 1437 1436 1436 1435 1434 1433 1432 1432 1431 1430 1430 1429 1428 1427 1426 1426 1425 1425 1424 1423 1423 1422 1422 1421 1421 1420 1420 1420 1419 1418 1418 1417 1416 1415 1415 1414 1414 1413 1412 1411 1410 1409 1408 1408 1407 1407 1407 1406 1406 1406 1406 1405 1405 1405 1405 1404 1404 1404 1403 1403
1442 1441 1441 1440 1440 1439 1439 1438 1437 1436 1436 1435 1434 1433 1433 1432 1431 1430 1430 1429 1429 1428 1427 1426 1426 1425 1425 1424 1423 1422 1422 1421 1420 1420 1419 1419 1418 1418 1417 1417 1416 1415 1415 1414 1414 1413 1412 1411 1410 1410 1409 1408 1407 1406 1405 1405 1405 1404 1404 1404 1403 1403 1403 1403 1402 1402 1401 1401 1401
1442 1441 1440 1440 1439 1438 1438 1437 1436 1435 1435 1434 1433 1432 1431 1430 1430 1429 1429 1428 1428 1427 1426 1425 1425 1424 1424 1423 1422 1421 1420 1420 1419 1419 1418 1417 1417 1416 1416 1415 1415 1414 1414 1413 1412 1412 1411 1410 1409 1408 1407 1406 1405 1405 1404 1404 1403 1403 1402 1402 1402 1401 1401 1400 1400 1400 1399 1399 1399
1442 1441 1440 1439 1439 1438 1437 1436 1435 1434 1433 1432 1431 1430 1430 1429 1428 1427 1427 1426 1426 1425 1424 1424 1423 1422 1422 1421 1420 1420 1419 1418 1418 1417 1416 1416 1415 1415 1414 1414 1413 1412 1412 1411 1411 1410 1410 1409 1408 1407 1406 1405 1404 1403 1403 1402 1401 1401 1400 1400 1400 1399 1399 1398 1398 1397 1397 1397 1397
1442 1441 1440 1440 1439 1438 1437 1436 1435 1434 1432 1431 1431 1430 1429 1428 1427 1426 1425 1424 1424 1423 1422 1421 1421 1420 1419 1419 1419 1418 1417 1416 1416 1415 1415 1414 1413 1413 1412 1412 1411 1410 1410 1410 1409 1408 1408 1407 1406 1405 1404 1403 1402 1401 1400 1400 1400 1399 1399 1398 1398 1397 1397 1396 1396 1395 1395 1395 1395
1444 1443 1442 1440 1440 1439 1438 1437 1435 1434 1433 1432 1431 1431 1430 1429 1427 1426 1425 1424 1423 1422 1421 1420 1420 1419 1418 1417 1417 1416 1415 1415 1414 1413 1413 1412 1411 1410 1410 1409 1409 1408 1408 1407 1407 1406 1406 1405 1405 1404 1403 1402 1401 1400 1399 1398 1398 1397 1397 1396 1395 1395 1395 1394 1394 1393 1393 1392 1392
1445 1445 1444 1443 1441 1440 1440 1439 1437 1436 1435 1434 1433 1432 1431 1430 1430 1429 1428 1427 1425 1425 1423 1422 1421 1420 1419 1418 1417 1416 1415 1414 1413 1412 1411 1410 1410 1409 1408 1407 1406 1405 1405 1405 1404 1404 1403 1403 1402 1402 1401 1400 1400 1399 1398 1397 1396 1395 1395 1394 1394 1393 1392 1392 1392 1391 1390 1390 1390
1447 1446 1445 1445 1444 1443 1441 1440 1440 1439 1438 1437 1435 1435 1434 1433 1432 1431 1430 1429 1428 1427 1426 1425 1424 1423 1422 1420 1419 1418 1417 1416 1415 1413 1412 1411 1410 1408 1407 1406 1405 1404 1403 1402 1402 1401 1401 1401 1401 1400 1400 1400 1399 1398 1397 1396 1395 1394 1393 1393 1392 1391 1390 1389 1389 1389 1388 1388 1388